Regional Weather Roundup
Issued by NWS State College, PA

Home | Current Version | Previous Version | Text Only | Print | Product List | Glossary On
Versions: 1 2 3 4 5 6 7 8 9 10 11 12 13 14 15 16 17 18 19 20 21 22 23 24 25 26 27 28 29 30 31 32 33 34 35 36 37 38 39 40 41 42 43 44 45 46 47 48 49 50
000
ASUS41 KCTP 261710
RWRCTP

REGIONAL WEATHER ROUNDUP
NATIONAL WEATHER SERVICE STATE COLLEGE PA
100 PM EDT FRI AUG 26 2016

Note: "fair" indicates few or no clouds below 12,000 feet with no
significant weather and/or obstructions to visibility.

* = STATION THAT DOES NOT REPORT PRECIPITATION /E.G. RAIN...SNOW...ETC/
    THUNDER OR FOG.

PAZ002>004-007>009-013>016-020>023-029>032-261800-
WESTERN PENNSYLVANIA

CITY           SKY/WX    TMP DP  RH WIND       PRES   REMARKS
ERIE           SUNNY     78  68  71 W10       30.14S
MEADVILLE      MOSUNNY   77  64  64 W6        30.17S
FRANKLIN*        N/A     81  64  57 W3        30.17F
NEW CASTLE     FAIR      81  62  52 NW8       30.17F
BEAVER COUNTY  PTSUNNY   82  68  61 W3        30.16F
BUTLER*        NOT AVBL
PITTSBURGH INT MOSUNNY   82  67  60 NW9       30.16F
PITTSBURGH     CLOUDY    81  68  64 NW6       30.15F
INDIANA*       PTSUNNY   79  70  73 NW7       30.19F
LATROBE        PTSUNNY   81  72  74 W7        30.16F
WASHINGTON CO* PTSUNNY   82  70  65 NW6       30.17S
$$

PAZ004>006-010>012-017>019-024>028-033>037-041-042-045-046-049>053-261800-
CENTRAL PENNSYLVANIA

CITY           SKY/WX    TMP DP  RH WIND       PRES   REMARKS
BRADFORD       MOSUNNY   78  63  59 W10       30.17F
DUBOIS         SUNNY     80  63  55 NW9       30.16F
CLEARFIELD     PTSUNNY   85  65  51 VRB5      30.15F
JOHNSTOWN      CLOUDY    76  69  79 N10       30.20S
ALTOONA        MOSUNNY   84  69  60 W12       30.15F
STATE COLLEGE  MOSUNNY   84  66  54 W7        30.12F
WILLIAMSPORT   MOSUNNY   87  62  43 NW10      30.06F
SELINSGROVE    SUNNY     87  72  60 NW12      30.07F
FT INDIANTOWN  SUNNY     86  68  54 VRB7G20   30.06F
CAPITAL CITY   PTSUNNY   90  68  48 NW12      30.06F
HARRISBURG     PTSUNNY   87  73  62 NW10      30.05F
YORK           MOSUNNY   89  69  51 NW9       30.07S
$$

PAZ038>040-043-044-047-048-054-055-060>062-067>071-261800-
EASTERN PENNSYLVANIA

CITY           SKY/WX    TMP DP  RH WIND       PRES   REMARKS
SCRANTON       MOSUNNY   84  69  60 NW8       30.07F
MOUNT POCONO   MOSUNNY   78  65  63 NW9G21    30.11R
ALLENTOWN      MOSUNNY   87  69  54 NW9       30.03F
QUAKERTOWN*    MOSUNNY   88  68  51 CALM      30.04F
READING        MOSUNNY   86  66  51 NW14      30.04S
LANCASTER      MOSUNNY   88  72  58 NW13      30.05F
COATESVILLE    MOSUNNY   86  70  58 NW9G17    30.07F
POTTSTOWN      SUNNY     88  67  49 NW12G18   30.04F
BLUE BELL      PTSUNNY   86  70  58 W8        30.02F
DOYLESTOWN     MOSUNNY   91  70  49 NW9       30.02F HX  96
WILLOW GROVE   NOT AVBL
NORTH PHILA    MOSUNNY   90  69  50 MISG      30.02S
PHILADELPHIA   MOSUNNY   91  67  44 NW10      30.01F
$$




USA.gov is the U.S. government's official web portal to all federal, state and local government web resources and services.